^^
 
Daily Summary for May 22, 2022 Units:  English    Metric   Both
Daily Weekly Monthly Yearly Custom
  Current: High: Low: Average:
Temperature: 85.9 °F 86.4 °F 55.3 °F 67.7 °F
Dew Point: 36.0 °F 45.8 °F 33.0 °F 37.6 °F
Humidity: 17% 53% 15% 36%
Wind Speed: 11mph 20mph 0mph 3.2mph
Wind Gust: 7mph 20mph - -
WindSSE - - South
Pressure: 30.0 in 30.1 in 30.0 in -
Precipitation: 0.000 in      
Historical Graphs
 
 
Tabular Data for May 22, 2022
Time Temperature Dew Point Pressure Wind Wind Speed Wind Gust Humidity Rainfall Rate (Hourly) solar
00:04 58.0 °F 36.8 °F 30.0 in Calm     45% 0.000 in 0.00 W/m2
00:09 57.9 °F 36.7 °F 30.0 in Calm     45% 0.000 in 0.00 W/m2
00:14 57.8 °F 36.6 °F 30.0 in Calm     45% 0.000 in 0.00 W/m2
00:19 57.6 °F 35.8 °F 30.0 in Calm     44% 0.000 in 0.00 W/m2
00:24 57.5 °F 35.7 °F 30.0 in Calm     44% 0.000 in 0.00 W/m2
00:29 57.3 °F 36.1 °F 30.0 in Calm     45% 0.000 in 0.00 W/m2
00:34 57.2 °F 35.5 °F 30.0 in Calm     44% 0.000 in 0.00 W/m2
00:39 57.1 °F 35.4 °F 30.0 in Calm     44% 0.000 in 0.00 W/m2
00:44 57.0 °F 35.9 °F 30.0 in Calm     45% 0.000 in 0.00 W/m2
00:49 56.9 °F 35.8 °F 30.0 in Calm     45% 0.000 in 0.00 W/m2
00:54 56.8 °F 35.1 °F 30.0 in Calm     44% 0.000 in 0.00 W/m2
00:59 56.7 °F 34.4 °F 30.0 in Calm     43% 0.000 in 0.00 W/m2
01:04 56.7 °F 34.9 °F 30.0 in Calm     44% 0.000 in 0.00 W/m2
01:09 56.7 °F 35.6 °F 30.0 in Calm     45% 0.000 in 0.00 W/m2
01:14 56.7 °F 35.6 °F 30.0 in Calm     45% 0.000 in 0.00 W/m2
01:19 56.7 °F 35.0 °F 30.0 in Calm     44% 0.000 in 0.00 W/m2
01:24 56.7 °F 35.6 °F 30.0 in Calm     45% 0.000 in 0.00 W/m2
01:29 56.7 °F 35.6 °F 30.0 in Calm     45% 0.000 in 0.00 W/m2
01:34 56.7 °F 35.6 °F 30.0 in NW 6 mph 1 mph 45% 0.000 in 0.00 W/m2
01:39 56.6 °F 35.5 °F 30.0 in Calm   6 mph 45% 0.000 in 0.00 W/m2
01:44 56.6 °F 36.0 °F 30.0 in NW 4 mph 1 mph 46% 0.000 in 0.00 W/m2
01:49 56.5 °F 35.4 °F 30.0 in Calm   3 mph 45% 0.000 in 0.00 W/m2
01:54 56.5 °F 35.4 °F 30.0 in NW 4 mph 1 mph 45% 0.000 in 0.00 W/m2
01:59 56.4 °F 35.3 °F 30.0 in NW 4 mph 3 mph 45% 0.000 in 0.00 W/m2
02:04 56.4 °F 35.3 °F 30.0 in WNW 4 mph 3 mph 45% 0.000 in 0.00 W/m2
02:09 56.4 °F 35.3 °F 30.0 in Calm     45% 0.000 in 0.00 W/m2
02:14 56.3 °F 35.2 °F 30.0 in Calm     45% 0.000 in 0.00 W/m2
02:19 56.2 °F 35.6 °F 30.0 in Calm     46% 0.000 in 0.00 W/m2
02:24 56.1 °F 35.6 °F 30.0 in Calm     46% 0.000 in 0.00 W/m2
02:29 56.0 °F 35.5 °F 30.0 in Calm     46% 0.000 in 0.00 W/m2
02:34 56.0 °F 35.9 °F 30.0 in WNW 2 mph   47% 0.000 in 0.00 W/m2
02:39 55.9 °F 35.4 °F 30.0 in WNW 2 mph 2 mph 46% 0.000 in 0.00 W/m2
02:44 55.9 °F 35.4 °F 30.0 in Calm     46% 0.000 in 0.00 W/m2
02:49 55.9 °F 35.4 °F 30.0 in Calm     46% 0.000 in 0.00 W/m2
02:54 55.9 °F 35.4 °F 30.0 in Calm     46% 0.000 in 0.00 W/m2
02:59 55.9 °F 35.4 °F 30.0 in Calm     46% 0.000 in 0.00 W/m2
03:04 55.9 °F 35.4 °F 30.0 in Calm     46% 0.000 in 0.00 W/m2
03:09 56.0 °F 35.4 °F 30.0 in Calm     46% 0.000 in 0.00 W/m2
03:14 56.0 °F 35.5 °F 30.0 in Calm     46% 0.000 in 0.00 W/m2
03:19 56.0 °F 35.5 °F 30.0 in NW 2 mph 1 mph 46% 0.000 in 0.00 W/m2
03:24 56.0 °F 35.5 °F 30.0 in Calm   2 mph 46% 0.000 in 0.00 W/m2
03:29 56.0 °F 35.5 °F 30.0 in Calm     46% 0.000 in 0.00 W/m2
03:34 56.0 °F 35.5 °F 30.0 in Calm     46% 0.000 in 0.00 W/m2
03:39 56.0 °F 35.5 °F 30.0 in Calm     46% 0.000 in 0.00 W/m2
03:44 56.1 °F 36.1 °F 30.0 in NW 2 mph   47% 0.000 in 0.00 W/m2
03:49 56.1 °F 35.0 °F 30.0 in Calm   2 mph 45% 0.000 in 0.00 W/m2
03:54 56.1 °F 35.6 °F 30.0 in NW 2 mph   46% 0.000 in 0.00 W/m2
03:59 56.2 °F 36.2 °F 30.0 in NNW 4 mph 2 mph 47% 0.000 in 0.00 W/m2
04:04 56.2 °F 35.1 °F 30.0 in NW 1 mph 3 mph 45% 0.000 in 0.00 W/m2
04:09 56.2 °F 35.7 °F 30.0 in Calm     46% 0.000 in 0.00 W/m2
04:14 56.2 °F 35.7 °F 30.0 in WNW 4 mph 1 mph 46% 0.000 in 0.00 W/m2
04:19 56.2 °F 35.7 °F 30.0 in Calm   3 mph 46% 0.000 in 0.00 W/m2
04:24 56.2 °F 36.2 °F 30.0 in Calm     47% 0.000 in 0.00 W/m2
04:29 56.1 °F 36.2 °F 30.0 in WNW 2 mph   47% 0.000 in 0.00 W/m2
04:34 56.0 °F 36.0 °F 30.0 in WNW 2 mph 2 mph 47% 0.000 in 0.00 W/m2
04:39 55.9 °F 35.4 °F 30.0 in Calm     46% 0.000 in 0.00 W/m2
04:44 55.8 °F 35.9 °F 30.0 in WNW 2 mph   47% 0.000 in 0.00 W/m2
04:49 55.7 °F 36.2 °F 30.0 in Calm   2 mph 48% 0.000 in 0.00 W/m2
04:54 55.6 °F 36.2 °F 30.0 in Calm     48% 0.000 in 0.00 W/m2
04:59 55.5 °F 35.6 °F 30.0 in Calm     47% 0.000 in 0.00 W/m2
05:04 55.4 °F 35.5 °F 30.0 in Calm     47% 0.000 in 0.00 W/m2
05:09 55.4 °F 36.0 °F 30.0 in WNW 2 mph   48% 0.000 in 0.00 W/m2
05:14 55.4 °F 35.5 °F 30.0 in WNW 2 mph 2 mph 47% 0.000 in 0.00 W/m2
05:19 55.4 °F 35.5 °F 30.0 in Calm     47% 0.000 in 0.00 W/m2
05:24 55.4 °F 35.5 °F 30.0 in Calm     47% 0.000 in 0.00 W/m2
05:29 55.4 °F 36.0 °F 30.0 in Calm     48% 0.000 in 0.00 W/m2
05:34 55.4 °F 36.0 °F 30.0 in WNW 2 mph   48% 0.000 in 0.00 W/m2
05:39 55.4 °F 36.0 °F 30.0 in Calm   2 mph 48% 0.000 in 0.00 W/m2
05:44 55.4 °F 36.0 °F 30.0 in WNW 2 mph 2 mph 48% 0.000 in 0.00 W/m2
05:49 55.4 °F 35.5 °F 30.0 in NW 4 mph 2 mph 47% 0.000 in 0.00 W/m2
05:54 55.4 °F 36.0 °F 30.0 in Calm   3 mph 48% 0.000 in 0.00 W/m2
05:59 55.4 °F 36.5 °F 30.0 in Calm     49% 0.000 in 5.00 W/m2
06:04 55.4 °F 36.0 °F 30.0 in Calm     48% 0.000 in 7.00 W/m2
06:09 55.3 °F 35.9 °F 30.0 in Calm     48% 0.000 in 7.00 W/m2
06:14 55.4 °F 36.0 °F 30.0 in Calm     48% 0.000 in 9.00 W/m2
06:19 55.4 °F 36.0 °F 30.0 in NNW 2 mph   48% 0.000 in 11.00 W/m2
06:24 55.4 °F 36.0 °F 30.0 in Calm   2 mph 48% 0.000 in 11.00 W/m2
06:29 55.5 °F 36.6 °F 30.0 in Calm     49% 0.000 in 12.00 W/m2
06:34 55.5 °F 36.6 °F 30.0 in NW 2 mph 1 mph 49% 0.000 in 12.00 W/m2
06:39 55.6 °F 36.1 °F 30.0 in Calm   2 mph 48% 0.000 in 14.00 W/m2
06:44 55.7 °F 36.3 °F 30.0 in Calm     48% 0.000 in 16.00 W/m2
06:49 55.8 °F 36.9 °F 30.0 in Calm     49% 0.000 in 16.00 W/m2
06:54 55.9 °F 37.4 °F 30.0 in NW 4 mph 1 mph 50% 0.000 in 18.00 W/m2
06:59 56.1 °F 36.7 °F 30.0 in NW 4 mph 3 mph 48% 0.000 in 19.00 W/m2
07:04 56.3 °F 37.4 °F 30.1 in Calm   3 mph 49% 0.000 in 19.00 W/m2
07:09 56.4 °F 37.9 °F 30.1 in NNW 4 mph 1 mph 50% 0.000 in 21.00 W/m2
07:14 56.6 °F 38.7 °F 30.1 in Calm   3 mph 51% 0.000 in 23.00 W/m2
07:19 56.7 °F 38.2 °F 30.1 in NNW 2 mph   50% 0.000 in 23.00 W/m2
07:24 56.9 °F 37.9 °F 30.1 in NW 4 mph 3 mph 49% 0.000 in 26.00 W/m2
07:29 57.1 °F 38.6 °F 30.1 in NNW 5 mph 2 mph 50% 0.000 in 32.00 W/m2
07:34 57.4 °F 38.9 °F 30.1 in NNW 6 mph 6 mph 50% 0.000 in 42.00 W/m2
07:39 57.7 °F 39.2 °F 30.1 in Calm     50% 0.000 in 33.00 W/m2
07:44 57.9 °F 40.9 °F 30.1 in Calm     53% 0.000 in 40.00 W/m2
07:49 58.2 °F 40.4 °F 30.1 in Calm     52% 0.000 in 72.00 W/m2
07:54 58.5 °F 40.8 °F 30.1 in Calm     52% 0.000 in 98.00 W/m2
07:59 58.9 °F 40.8 °F 30.1 in Calm     51% 0.000 in 63.00 W/m2
08:04 59.4 °F 40.9 °F 30.1 in Calm     51% 0.000 in 49.00 W/m2
08:09 60.0 °F 41.1 °F 30.1 in Calm     50% 0.000 in 81.00 W/m2
08:14 60.7 °F 41.9 °F 30.1 in Calm     50% 0.000 in 123.00 W/m2
08:19 61.3 °F 42.0 °F 30.1 in Calm     50% 0.000 in 202.00 W/m2
08:24 61.9 °F 42.5 °F 30.1 in NNW 2 mph 2 mph 50% 0.000 in 130.00 W/m2
08:29 62.6 °F 41.5 °F 30.1 in NNW 2 mph   47% 0.000 in 91.00 W/m2
08:34 63.2 °F 39.8 °F 30.1 in NNW 2 mph 2 mph 43% 0.000 in 279.00 W/m2
08:39 63.7 °F 40.2 °F 30.1 in Calm   2 mph 42% 0.000 in 359.00 W/m2
08:44 64.3 °F 41.3 °F 30.1 in NNW 2 mph   43% 0.000 in 468.00 W/m2
08:49 65.1 °F 41.7 °F 30.1 in NNW 2 mph 2 mph 43% 0.000 in 557.00 W/m2
08:54 65.9 °F 41.5 °F 30.1 in NNW 2 mph 2 mph 41% 0.000 in 559.00 W/m2
08:59 66.5 °F 42.7 °F 30.1 in Calm   2 mph 42% 0.000 in 582.00 W/m2
09:04 67.1 °F 42.7 °F 30.1 in East 2 mph   42% 0.000 in 592.00 W/m2
09:09 67.9 °F 43.8 °F 30.1 in East 2 mph 2 mph 42% 0.000 in 629.00 W/m2
09:14 68.6 °F 44.6 °F 30.1 in ESE 2 mph 2 mph 42% 0.000 in 645.00 W/m2
09:19 69.0 °F 44.7 °F 30.1 in SSE 4 mph 2 mph 42% 0.000 in 649.00 W/m2
09:24 69.3 °F 45.1 °F 30.1 in SE 4 mph 3 mph 42% 0.000 in 677.00 W/m2
09:29 69.8 °F 44.6 °F 30.1 in ENE 6 mph 3 mph 41% 0.000 in 687.00 W/m2
09:34 70.1 °F 44.5 °F 30.1 in ENE 4 mph 6 mph 40% 0.000 in 693.00 W/m2
09:39 70.4 °F 43.3 °F 30.1 in SE 2 mph 3 mph 38% 0.000 in 710.00 W/m2
09:44 70.8 °F 43.2 °F 30.1 in SSE 4 mph 2 mph 37% 0.000 in 728.00 W/m2
09:49 71.1 °F 43.3 °F 30.1 in SSE 2 mph 3 mph 37% 0.000 in 742.00 W/m2
09:54 71.4 °F 43.6 °F 30.1 in SSE 6 mph 2 mph 37% 0.000 in 751.00 W/m2
09:59 71.8 °F 42.7 °F 30.1 in East 6 mph 6 mph 35% 0.000 in 765.00 W/m2
10:04 72.2 °F 44.4 °F 30.1 in East 2 mph 6 mph 37% 0.000 in 773.00 W/m2
10:09 72.7 °F 45.4 °F 30.1 in East 2 mph 2 mph 38% 0.000 in 664.00 W/m2
10:14 73.0 °F 45.8 °F 30.1 in ESE 2 mph 2 mph 38% 0.000 in 803.00 W/m2
10:19 73.4 °F 45.2 °F 30.1 in East 6 mph 2 mph 37% 0.000 in 814.00 W/m2
10:24 73.8 °F 43.4 °F 30.1 in SE 9 mph 6 mph 34% 0.000 in 830.00 W/m2
10:29 74.0 °F 42.3 °F 30.1 in ESE 9 mph 9 mph 32% 0.000 in 837.00 W/m2
10:34 74.2 °F 42.4 °F 30.1 in East 6 mph 6 mph 32% 0.000 in 842.00 W/m2
10:39 74.5 °F 40.8 °F 30.1 in SE 6 mph 6 mph 30% 0.000 in 863.00 W/m2
10:44 74.8 °F 41.2 °F 30.1 in East 2 mph 3 mph 30% 0.000 in 868.00 W/m2
10:49 75.0 °F 40.6 °F 30.1 in SE 7 mph 3 mph 29% 0.000 in 879.00 W/m2
10:54 75.4 °F 42.7 °F 30.1 in East 9 mph 7 mph 31% 0.000 in 893.00 W/m2
10:59 75.9 °F 42.0 °F 30.1 in ESE 2 mph 9 mph 30% 0.000 in 888.00 W/m2
11:04 76.3 °F 41.5 °F 30.1 in SE 7 mph 3 mph 29% 0.000 in 900.00 W/m2
11:09 76.5 °F 39.0 °F 30.1 in SE 5 mph 7 mph 26% 0.000 in 911.00 W/m2
11:14 76.7 °F 39.2 °F 30.1 in SE 6 mph 6 mph 26% 0.000 in 923.00 W/m2
11:19 77.1 °F 41.3 °F 30.1 in SSE 4 mph 2 mph 28% 0.000 in 937.00 W/m2
11:24 77.3 °F 38.6 °F 30.1 in SSE 2 mph 3 mph 25% 0.000 in 947.00 W/m2
11:29 77.6 °F 40.0 °F 30.1 in SE 2 mph 1 mph 26% 0.000 in 951.00 W/m2
11:34 78.1 °F 39.4 °F 30.1 in NE 2 mph 2 mph 25% 0.000 in 949.00 W/m2
11:39 78.7 °F 39.8 °F 30.1 in East 2 mph 2 mph 25% 0.000 in 949.00 W/m2
11:44 79.0 °F 41.2 °F 30.1 in SE 2 mph 2 mph 26% 0.000 in 951.00 W/m2
11:49 79.6 °F 41.3 °F 30.1 in Calm   2 mph 26% 0.000 in 958.00 W/m2
11:54 79.8 °F 39.7 °F 30.1 in SE 9 mph 6 mph 24% 0.000 in 965.00 W/m2
11:59 79.8 °F 37.6 °F 30.1 in East 7 mph 9 mph 22% 0.000 in 969.00 W/m2
12:04 79.7 °F 36.3 °F 30.1 in East 4 mph 7 mph 21% 0.000 in 969.00 W/m2
12:09 80.1 °F 37.6 °F 30.1 in SE 2 mph 3 mph 22% 0.000 in 972.00 W/m2
12:14 80.2 °F 36.7 °F 30.1 in East 6 mph 3 mph 21% 0.000 in 974.00 W/m2
12:19 80.3 °F 36.7 °F 30.1 in SE 7 mph 6 mph 21% 0.000 in 977.00 W/m2
12:24 80.5 °F 37.0 °F 30.1 in East 7 mph 7 mph 21% 0.000 in 984.00 W/m2
12:29 80.7 °F 37.1 °F 30.1 in SSE 11 mph 8 mph 21% 0.000 in 988.00 W/m2
12:34 80.9 °F 38.4 °F 30.1 in SSE 6 mph 10 mph 22% 0.000 in 981.00 W/m2
12:39 81.3 °F 37.5 °F 30.1 in ESE 5 mph 6 mph 21% 0.000 in 986.00 W/m2
12:44 81.7 °F 39.0 °F 30.1 in SE 7 mph 7 mph 22% 0.000 in 984.00 W/m2
12:49 81.8 °F 36.8 °F 30.1 in SE 6 mph 6 mph 20% 0.000 in 986.00 W/m2
12:54 82.3 °F 38.2 °F 30.1 in SE 9 mph 5 mph 21% 0.000 in 988.00 W/m2
12:59 82.5 °F 35.9 °F 30.1 in SE 9 mph 9 mph 19% 0.000 in 997.00 W/m2
13:04 83.0 °F 36.3 °F 30.1 in ESE 2 mph 7 mph 19% 0.000 in 988.00 W/m2
13:09 83.3 °F 37.9 °F 30.1 in ESE 11 mph 4 mph 20% 0.000 in 969.00 W/m2
13:14 83.3 °F 36.7 °F 30.1 in ESE 4 mph 10 mph 19% 0.000 in 962.00 W/m2
13:18 83.4 °F 36.8 °F 30.1 in SE 7 mph 5 mph 19% 0.000 in 990.00 W/m2
13:24 83.5 °F 36.9 °F 30.1 in ESE 7 mph 7 mph 19% 0.000 in 986.00 W/m2
13:29 83.4 °F 35.4 °F 30.1 in East 6 mph 7 mph 18% 0.000 in 970.00 W/m2
13:34 83.4 °F 38.1 °F 30.1 in ESE 20 mph 13 mph 20% 0.000 in 965.00 W/m2
13:39 83.4 °F 36.8 °F 30.1 in East 4 mph 20 mph 19% 0.000 in 962.00 W/m2
13:44 83.8 °F 37.0 °F 30.1 in SE 7 mph 3 mph 19% 0.000 in 953.00 W/m2
13:49 84.0 °F 35.8 °F 30.0 in East 7 mph 7 mph 18% 0.000 in 951.00 W/m2
13:54 84.0 °F 35.8 °F 30.0 in ESE 7 mph 7 mph 18% 0.000 in 944.00 W/m2
13:59 83.9 °F 35.8 °F 30.0 in ESE 5 mph 6 mph 18% 0.000 in 942.00 W/m2
14:04 84.2 °F 35.9 °F 30.0 in ENE 9 mph 6 mph 18% 0.000 in 942.00 W/m2
14:09 84.8 °F 37.8 °F 30.0 in East 2 mph 9 mph 19% 0.000 in 926.00 W/m2
14:14 84.9 °F 36.6 °F 30.0 in SE 9 mph 8 mph 18% 0.000 in 926.00 W/m2
14:19 85.0 °F 36.7 °F 30.0 in SE 7 mph 9 mph 18% 0.000 in 905.00 W/m2
14:24 85.0 °F 36.7 °F 30.0 in ESE 9 mph 7 mph 18% 0.000 in 902.00 W/m2
14:29 84.9 °F 36.6 °F 30.0 in SSE 7 mph 9 mph 18% 0.000 in 896.00 W/m2
14:34 84.8 °F 36.6 °F 30.0 in SSW 2 mph 7 mph 18% 0.000 in 888.00 W/m2
14:39 84.8 °F 36.6 °F 30.0 in SE 6 mph 6 mph 18% 0.000 in 884.00 W/m2
14:44 85.0 °F 35.1 °F 30.0 in ESE 7 mph 6 mph 17% 0.000 in 872.00 W/m2
14:49 85.1 °F 35.4 °F 30.0 in ESE 11 mph 7 mph 17% 0.000 in 861.00 W/m2
14:54 85.3 °F 36.8 °F 30.0 in SSE 7 mph 10 mph 18% 0.000 in 853.00 W/m2
14:59 85.6 °F 37.1 °F 30.0 in SSE 7 mph 7 mph 18% 0.000 in 844.00 W/m2
15:04 85.8 °F 35.9 °F 30.0 in SSE 4 mph 3 mph 17% 0.000 in 837.00 W/m2
15:08 86.0 °F 37.5 °F 30.0 in ESE 7 mph 4 mph 18% 0.000 in 826.00 W/m2
15:14 86.3 °F 37.6 °F 30.0 in ESE 6 mph 7 mph 18% 0.000 in 809.00 W/m2
15:19 86.4 °F 36.4 °F 30.0 in SE 11 mph 8 mph 17% 0.000 in 805.00 W/m2
15:24 86.4 °F 33.0 °F 30.0 in ESE 11 mph 10 mph 15% 0.000 in 788.00 W/m2
15:29 85.9 °F 34.2 °F 30.0 in SE 7 mph 10 mph 16% 0.000 in 779.00 W/m2
15:34 85.5 °F 34.2 °F 30.0 in SSW 9 mph 7 mph 16% 0.000 in 768.00 W/m2
15:39 85.3 °F 33.9 °F 30.0 in SE 6 mph 9 mph 16% 0.000 in 765.00 W/m2
15:44 85.2 °F 35.5 °F 30.0 in SE 2 mph 6 mph 17% 0.000 in 761.00 W/m2
15:49 85.8 °F 35.7 °F 30.0 in SE 9 mph 7 mph 17% 0.000 in 722.00 W/m2
15:54 86.1 °F 34.6 °F 30.0 in SE 6 mph 9 mph 16% 0.000 in 733.00 W/m2
15:59 86.2 °F 33.1 °F 30.0 in SSE 9 mph 6 mph 15% 0.000 in 710.00 W/m2
16:04 85.9 °F 34.4 °F 30.0 in SE 7 mph 9 mph 16% 0.000 in 693.00 W/m2
16:09 85.4 °F 35.5 °F 30.0 in SE 13 mph 7 mph 17% 0.000 in 675.00 W/m2
16:14 85.2 °F 35.4 °F 30.0 in ESE 6 mph 13 mph 17% 0.000 in 664.00 W/m2
16:19 85.2 °F 36.8 °F 30.0 in SE 6 mph 6 mph 18% 0.000 in 649.00 W/m2
16:23 85.4 °F 37.1 °F 30.0 in SE 6 mph 6 mph 18% 0.000 in 599.00 W/m2
16:29 85.7 °F 37.2 °F 30.0 in SSE 4 mph 6 mph 18% 0.000 in 621.00 W/m2
16:34 85.9 °F 37.4 °F 30.0 in WSW 4 mph 3 mph 18% 0.000 in 610.00 W/m2
16:39 85.9 °F 36.0 °F 30.0 in ESE 2 mph 3 mph 17% 0.000 in 592.00 W/m2
16:43 85.9 °F 36.0 °F 30.0 in SSE 11 mph 7 mph 17% 0.000 in 548.00 W/m2
El Dorado Weather
Compliments of Weather Underground - 2 mb